Location: Carite
(10.3909°N, 67.0102°W)
Time: 04:41:56
(UTC+00:00)

OAO 3 Rocket - Pass Details

Date: 08 September 2024
Orbit: 619 x 669 km, 35.0° (Epoch: 09 October)

Event Time Altitude Azimuth Distance (km) Brightness Sun altitude
Rises 22:47:44 0° 215° (SW) 2,960 7.0 -4.5°
Reaches altitude 10° 22:50:20 10° 204° (SSW) 2,041 6.0 -5.2°
Maximum altitude 22:54:31 30° 143° (SE) 1,136 4.1 -6.2°
Drops below altitude 10° 22:58:37 10° 81° (E) 2,010 5.1 -7.2°
Enters shadow 22:59:14 - 78° (ENE) 2,217 5.3 -7.3°
